{"data":{"norad_id":82529,"intl_designator":"","name":"UNKNOWN","alt_names":[],"object_type":"UNKNOWN","status":"UNKNOWN","operator":null,"country":null,"launch_date":null,"launch_site_code":null,"launch_vehicle":null,"mission":null,"orbit_class":"UNKNOWN","rcs_meters":null,"size_class":null,"mass_kg":null,"dimensions":null,"purposes":[],"wikipedia_slug":null,"has_3d_model":false,"image_url":null,"decayed_at":null,"tle_current":{"epoch":"2026-05-24T00:30:47.411712Z","epoch_age_seconds":149871,"freshness":"FRESH","line1":"1 82529U          26144.02138208  .00001472  00000+0  22933-2 0  9991","line2":"2 82529  99.7788 227.2214 0242166 204.1842 335.2018 13.41357410611490","mean_motion":13.4135741,"eccentricity":0.0242166,"inclination_deg":99.7788,"raan_deg":227.2214,"arg_perigee_deg":204.1842,"mean_anomaly_deg":335.2018,"bstar":0.0022933,"rev_number":61149,"period_min":107.35393782929,"perigee_km":923.0296008072,"apogee_km":1285.4244337283,"semimajor_km":7482.3640172678,"source":"CELESTRAK","updated_at":"2026-05-25T13:38:11.191205Z"}}}